Change the Weather History Date:

Saturday, March 29, 2014

  Actual Average Record
Temperature  
Mean Temperature 39 °F -  
Max Temperature 48 °F 60 °F 82 °F (1998)
Min Temperature 28 °F 37 °F 28 °F (2014)
Degree Days  
Heating Degree Days 26    
Moisture  
Dew Point 33 °F    
Average Humidity 72    
Maximum Humidity 89    
Minimum Humidity 50    
Precipitation  
Precipitation 0.00 in - - ()
Sea Level Pressure  
Sea Level Pressure 30.19 in    
Wind  
Wind Speed 8 mph (NNW)    
Max Wind Speed 14 mph    
Max Gust Speed -    
Visibility 8 miles    
Events      
Averages and records for this station are not official NWS values.
T = Trace of Precipitation, MM = Missing Value Source: NWS Daily Summary

Daily Weather History Graph

Daily Weather History Graph

Search for Another Location

Airport or City:

Trip Planner

Search our weather history database for the weather conditions in past years. The results will help you decide how hot, cold, wet, or windy it might be!

Date:

Astronomy

Mar. 29, 2014 Rise Set
Actual Time 6:52 AM CDT 7:23 PM CDT
Civil Twilight 6:25 AM CDT 7:49 PM CDT
Nautical Twilight 5:54 AM CDT 8:21 PM CDT
Astronomical Twilight 5:21 AM CDT 8:53 PM CDT
Moon 6:00 AM CDT (3/29) 6:28 PM CDT (3/29)
Length of Visible Light 13h 24m
Length of Day
12h 31m
Waning Crescent, 2% of the Moon is Illuminated
Mar 29
Waning Crescent
Mar 30
New
Apr 7
First Quarter
Apr 15
Full
Apr 22
Last Quarter

Hourly Weather History & Observations

Time (CDT) Temp. Windchill Dew Point Humidity Pressure Visibility Wind Dir Wind Speed Gust Speed Precip Events Conditions
12:14 AM 42.8 °F 37.5 °F 37.4 °F 81% 30.12 in 10.0 mi NE 9.2 mph - N/A   Overcast
12:24 AM 42.8 °F 39.3 °F 37.4 °F 81% 30.11 in 10.0 mi NE 5.8 mph - N/A   Overcast
12:54 AM 43.0 °F 39.5 °F 36.0 °F 76% 30.12 in 10.0 mi NE 5.8 mph - N/A   Overcast
1:22 AM 42.8 °F 40.1 °F 35.6 °F 76% 30.11 in 10.0 mi NE 4.6 mph - N/A   Overcast
1:54 AM 42.1 °F 37.7 °F 36.0 °F 79% 30.12 in 10.0 mi North 6.9 mph - N/A   Clear
2:54 AM 41.0 °F 36.4 °F 35.1 °F 79% 30.09 in 10.0 mi NNW 6.9 mph - N/A   Scattered Clouds
3:06 AM 41.0 °F 36.4 °F 35.6 °F 81% 30.08 in 10.0 mi NNW 6.9 mph - N/A   Mostly Cloudy
3:54 AM 41.0 °F 34.7 °F 35.1 °F 79% 30.10 in 9.0 mi NNW 10.4 mph - N/A   Overcast
4:54 AM 39.9 °F 35.1 °F 34.0 °F 79% 30.11 in 8.0 mi NNW 6.9 mph - N/A   Overcast
5:38 AM 39.2 °F 35.0 °F 33.8 °F 81% 30.11 in 8.0 mi NNW 5.8 mph - N/A   Overcast
5:54 AM 39.9 °F 35.1 °F 34.0 °F 79% 30.13 in 8.0 mi NNW 6.9 mph - N/A   Overcast
6:20 AM 39.2 °F 35.9 °F 33.8 °F 81% 30.12 in 8.0 mi NNW 4.6 mph - N/A   Overcast
6:54 AM 39.9 °F 33.9 °F 34.0 °F 79% 30.15 in 5.0 mi North 9.2 mph - N/A   Haze
7:54 AM 39.9 °F 33.4 °F 33.1 °F 77% 30.18 in 7.0 mi NNW 10.4 mph - N/A   Overcast
8:54 AM 39.9 °F 33.9 °F 33.1 °F 77% 30.20 in 7.0 mi NW 9.2 mph - N/A   Overcast
9:54 AM 41.0 °F 35.2 °F 33.1 °F 73% 30.22 in 8.0 mi NNW 9.2 mph - N/A   Overcast
10:54 AM 42.1 °F 35.2 °F 32.0 °F 67% 30.23 in 6.0 mi North 12.7 mph - N/A   Haze
11:54 AM 43.0 °F 36.8 °F 32.0 °F 65% 30.23 in 9.0 mi NNW 11.5 mph - N/A   Overcast
12:54 PM 44.1 °F 38.1 °F 30.9 °F 60% 30.23 in 7.0 mi NNW 11.5 mph - N/A   Overcast
1:54 PM 44.1 °F 38.6 °F 32.0 °F 63% 30.23 in 8.0 mi NNW 10.4 mph - N/A   Overcast
2:54 PM 46.0 °F 39.9 °F 32.0 °F 58% 30.22 in 5.0 mi NNW 13.8 mph - N/A   Haze
3:24 PM 48.2 °F - 30.2 °F 50% 30.21 in 7.0 mi NNW 10.4 mph - N/A   Overcast
3:54 PM 48.0 °F - 30.9 °F 52% 30.23 in 7.0 mi NNW 11.5 mph - N/A   Mostly Cloudy
4:54 PM 48.0 °F - 30.9 °F 52% 30.23 in 5.0 mi North 8.1 mph - N/A   Haze
5:54 PM 48.0 °F - 30.9 °F 52% 30.24 in 7.0 mi North 8.1 mph - N/A   Haze
6:54 PM 45.0 °F 40.1 °F 30.9 °F 58% 30.27 in 8.0 mi NNE 9.2 mph - N/A   Clear
7:54 PM 43.0 °F - 30.0 °F 60% 30.27 in 9.0 mi Calm Calm - N/A   Clear
8:54 PM 35.1 °F - 28.9 °F 78% 30.29 in 7.0 mi Calm Calm - N/A   Clear
9:54 PM 34.0 °F - 30.0 °F 85% 30.28 in 7.0 mi Calm Calm - N/A   Clear
10:54 PM 30.9 °F 27.5 °F 28.0 °F 89% 30.28 in 5.0 mi WSW 3.5 mph - N/A   Clear
11:54 PM 28.0 °F - 25.0 °F 88% 30.28 in 5.0 mi Calm Calm - N/A   Clear